When you browse on this site, cookies collect data to enhance your experience and personalize the content and advertising you see.
Visit our Privacy Policy to learn more. By continuing to use the site, you agree to this use of cookies and data.
  • En España
  • Lista de países
  • Para 7 días
  • Temperatura del agua
  • El tiempo en el mapa
  • Informadores
  • user-avatar
    Iniciar sesión

    Tiempo cada hora Wakefield

    Hoy, 23 Septiembre, Lunes

    Tiempo Temperatura Precipitaciones Viento Presión Humedad
    00:00 +15°C° 0 mm 2 mps 747 mmHg 89%
    01:00 +15°C° 0 mm 2 mps 747 mmHg 89%
    02:00 +14°C° 0 mm 2 mps 747 mmHg 90%
    03:00 +14°C° 0 mm 2 mps 747 mmHg 91%
    04:00 +14°C° 0 mm 2 mps 747 mmHg 91%
    05:00 +14°C° 0 mm 2 mps 748 mmHg 91%
    06:00 +13°C° 0 mm 2 mps 748 mmHg 91%
    07:00 +14°C° 0 mm 2 mps 748 mmHg 85%
    08:00 +14°C° 0 mm 3 mps 749 mmHg 79%
    09:00 +15°C° 0 mm 4 mps 749 mmHg 73%
    10:00 +17°C° 0 mm 4 mps 749 mmHg 67%
    11:00 +18°C° 0 mm 4 mps 749 mmHg 61%
    12:00 +19°C° 0 mm 5 mps 750 mmHg 56%
    13:00 +19°C° 0 mm 5 mps 749 mmHg 56%
    14:00 +19°C° 0 mm 5 mps 749 mmHg 57%
    15:00 +19°C° 0 mm 5 mps 749 mmHg 57%
    16:00 +17°C° 0.1 mm 5 mps 749 mmHg 63%
    17:00 +17°C° 0.1 mm 5 mps 748 mmHg 69%
    18:00 +17°C° 0.1 mm 4 mps 748 mmHg 75%
    19:00 +16°C° 0.1 mm 5 mps 748 mmHg 77%
    20:00 +15°C° 0.1 mm 5 mps 748 mmHg 80%
    21:00 +15°C° 0.1 mm 5 mps 748 mmHg 82%
    22:00 +15°C° 0 mm 5 mps 747 mmHg 84%
    23:00 +15°C° 0 mm 4 mps 747 mmHg 85%

    Mañana, 24 Septiembre, Martes

    Tiempo Temperatura Precipitaciones Viento Presión Humedad
    00:00 +15°C° 0 mm 4 mps 747 mmHg 86%
    01:00 +15°C° 0.1 mm 4 mps 746 mmHg 87%
    02:00 +17°C° 0.1 mm 3 mps 746 mmHg 88%
    03:00 +17°C° 0.1 mm 3 mps 745 mmHg 89%
    04:00 +17°C° 0 mm 3 mps 745 mmHg 90%
    05:00 +17°C° 0 mm 3 mps 744 mmHg 90%
    06:00 +17°C° 0 mm 3 mps 744 mmHg 90%
    07:00 +17°C° 0.6 mm 3 mps 743 mmHg 90%
    08:00 +17°C° 0.6 mm 3 mps 743 mmHg 89%
    09:00 +18°C° 0.6 mm 4 mps 742 mmHg 89%
    10:00 +17°C° 2.2 mm 3 mps 742 mmHg 89%
    11:00 +17°C° 2.2 mm 3 mps 741 mmHg 90%
    12:00 +17°C° 2.2 mm 3 mps 741 mmHg 91%
    13:00 +15°C° 1.3 mm 4 mps 741 mmHg 89%
    14:00 +15°C° 1.3 mm 5 mps 741 mmHg 87%
    15:00 +15°C° 1.3 mm 5 mps 741 mmHg 85%
    16:00 +15°C° 0.1 mm 5 mps 741 mmHg 83%
    17:00 +15°C° 0.1 mm 4 mps 741 mmHg 82%
    18:00 +16°C° 0.1 mm 3 mps 741 mmHg 80%
    19:00 +14°C° 0 mm 3 mps 741 mmHg 82%
    20:00 +14°C° 0 mm 3 mps 742 mmHg 83%
    21:00 +13°C° 0 mm 3 mps 742 mmHg 84%
    22:00 +13°C° 0 mm 3 mps 742 mmHg 85%
    23:00 +13°C° 0 mm 3 mps 741 mmHg 86%

    Pasado mañana, 25 Septiembre, Miércoles

    Tiempo Temperatura Precipitaciones Viento Presión Humedad
    00:00 +13°C° 0 mm 3 mps 741 mmHg 87%
    01:00 +13°C° 0.1 mm 3 mps 741 mmHg 88%
    02:00 +13°C° 0.1 mm 3 mps 741 mmHg 89%
    03:00 +13°C° 0.1 mm 3 mps 741 mmHg 90%
    04:00 +14°C° 0.1 mm 2 mps 741 mmHg 91%
    05:00 +14°C° 0.1 mm 2 mps 741 mmHg 91%
    06:00 +14°C° 0.1 mm 2 mps 740 mmHg 91%
    07:00 +14°C° 0 mm 1 mps 741 mmHg 88%
    08:00 +15°C° 0 mm 1 mps 741 mmHg 85%
    09:00 +16°C° 0 mm 1 mps 742 mmHg 82%
    10:00 +18°C° 0 mm 1 mps 742 mmHg 78%
    11:00 +17°C° 0 mm 0 mps 742 mmHg 73%
    12:00 +17°C° 0 mm 0 mps 742 mmHg 69%
    13:00 +19°C° 0 mm 1 mps 742 mmHg 68%
    14:00 +20°C° 0 mm 1 mps 742 mmHg 66%
    15:00 +20°C° 0 mm 1 mps 743 mmHg 65%
    16:00 +19°C° 0 mm 1 mps 743 mmHg 70%
    17:00 +18°C° 0 mm 1 mps 743 mmHg 74%
    18:00 +16°C° 0 mm 2 mps 743 mmHg 79%
    19:00 +16°C° 0 mm 2 mps 743 mmHg 81%
    20:00 +15°C° 0 mm 2 mps 743 mmHg 84%
    21:00 +15°C° 0 mm 2 mps 743 mmHg 86%
    22:00 +15°C° 1 mm 2 mps 742 mmHg 88%
    23:00 +14°C° 1 mm 3 mps 742 mmHg 90%

    26 Septiembre, Jueves

    Tiempo Temperatura Precipitaciones Viento Presión Humedad
    00:00 +14°C° 1 mm 4 mps 741 mmHg 92%
    01:00 +15°C° 1.2 mm 4 mps 741 mmHg 90%
    02:00 +15°C° 1.2 mm 5 mps 741 mmHg 89%
    03:00 +16°C° 1.2 mm 5 mps 741 mmHg 87%
    04:00 +15°C° 0 mm 5 mps 741 mmHg 88%
    05:00 +15°C° 0 mm 4 mps 740 mmHg 89%
    06:00 +14°C° 0 mm 4 mps 740 mmHg 90%
    07:00 +15°C° 0.1 mm 5 mps 741 mmHg 83%
    08:00 +15°C° 0.1 mm 6 mps 741 mmHg 77%
    09:00 +15°C° 0.1 mm 7 mps 742 mmHg 71%
    10:00 +16°C° 0 mm 7 mps 742 mmHg 67%
    11:00 +16°C° 0 mm 6 mps 742 mmHg 63%
    12:00 +17°C° 0 mm 6 mps 743 mmHg 59%
    13:00 +17°C° 0.1 mm 6 mps 742 mmHg 61%
    14:00 +17°C° 0.1 mm 6 mps 742 mmHg 62%
    15:00 +16°C° 0.1 mm 6 mps 742 mmHg 64%
    16:00 +16°C° 0.1 mm 6 mps 742 mmHg 67%
    17:00 +15°C° 0.1 mm 6 mps 742 mmHg 71%
    18:00 +15°C° 0.1 mm 6 mps 742 mmHg 74%
    19:00 +14°C° 0.1 mm 6 mps 743 mmHg 75%
    20:00 +14°C° 0.1 mm 6 mps 743 mmHg 76%
    21:00 +13°C° 0.1 mm 6 mps 743 mmHg 77%
    22:00 +13°C° 0 mm 5 mps 743 mmHg 78%
    23:00 +13°C° 0 mm 5 mps 743 mmHg 79%

    27 Septiembre, Viernes

    Tiempo Temperatura Precipitaciones Viento Presión Humedad
    00:00 +12°C° 0 mm 5 mps 744 mmHg 80%
    01:00 +12°C° 0 mm 5 mps 743 mmHg 81%
    02:00 +12°C° 0 mm 4 mps 743 mmHg 82%
    03:00 +12°C° 0 mm 4 mps 743 mmHg 82%
    04:00 +12°C° 0 mm 4 mps 743 mmHg 83%
    05:00 +12°C° 0 mm 4 mps 743 mmHg 83%
    06:00 +12°C° 0 mm 4 mps 743 mmHg 84%
    07:00 +12°C° 0 mm 5 mps 743 mmHg 81%
    08:00 +13°C° 0 mm 5 mps 743 mmHg 77%
    09:00 +14°C° 0 mm 6 mps 743 mmHg 74%
    10:00 +14°C° 0.1 mm 6 mps 742 mmHg 72%
    11:00 +15°C° 0.1 mm 7 mps 742 mmHg 70%
    12:00 +15°C° 0.1 mm 7 mps 742 mmHg 68%
    13:00 +15°C° 0.5 mm 7 mps 741 mmHg 70%
    14:00 +14°C° 0.5 mm 7 mps 741 mmHg 72%
    15:00 +13°C° 0.5 mm 8 mps 741 mmHg 75%
    16:00 +14°C° 0.3 mm 7 mps 741 mmHg 76%
    17:00 +13°C° 0.3 mm 6 mps 741 mmHg 77%
    18:00 +13°C° 0.3 mm 5 mps 741 mmHg 79%
    19:00 +12°C° 0.3 mm 5 mps 741 mmHg 80%
    20:00 +12°C° 0.3 mm 5 mps 741 mmHg 81%
    21:00 +11°C° 0.3 mm 4 mps 742 mmHg 81%
    22:00 +11°C° 0 mm 4 mps 742 mmHg 81%
    23:00 +10°C° 0 mm 5 mps 742 mmHg 81%

    28 Septiembre, Sábado

    Tiempo Temperatura Precipitaciones Viento Presión Humedad
    00:00 +10°C° 0 mm 5 mps 742 mmHg 82%
    01:00 +10°C° 0 mm 5 mps 742 mmHg 81%
    02:00 +10°C° 0 mm 5 mps 742 mmHg 81%
    03:00 +10°C° 0 mm 6 mps 742 mmHg 81%
    04:00 +10°C° 0 mm 5 mps 743 mmHg 81%
    05:00 +10°C° 0 mm 5 mps 743 mmHg 81%
    06:00 +10°C° 0 mm 5 mps 743 mmHg 81%
    07:00 +10°C° 0 mm 6 mps 743 mmHg 79%
    08:00 +11°C° 0 mm 6 mps 744 mmHg 77%
    09:00 +11°C° 0 mm 7 mps 744 mmHg 74%
    10:00 +12°C° 0 mm 7 mps 744 mmHg 71%
    11:00 +14°C° 0 mm 7 mps 744 mmHg 68%
    12:00 +14°C° 0 mm 7 mps 745 mmHg 64%
    13:00 +14°C° 0 mm 7 mps 745 mmHg 64%
    14:00 +15°C° 0 mm 7 mps 745 mmHg 63%
    15:00 +15°C° 0 mm 7 mps 745 mmHg 62%
    16:00 +14°C° 0 mm 6 mps 745 mmHg 67%
    17:00 +13°C° 0 mm 5 mps 745 mmHg 71%
    18:00 +12°C° 0 mm 5 mps 745 mmHg 75%
    19:00 +11°C° 0 mm 4 mps 746 mmHg 77%
    20:00 +11°C° 0 mm 4 mps 746 mmHg 79%
    21:00 +11°C° 0 mm 4 mps 746 mmHg 81%
    22:00 +11°C° 0 mm 4 mps 746 mmHg 82%
    23:00 +11°C° 0 mm 3 mps 746 mmHg 84%
    Mostrar más